sat.trackr.live / text

‹ back to catalog

UNKNOWN

NORAD 81427

UNKNOWN UNKNOWN UNKNOWN

§ Identity

Operator
Country
Launch date
Launch site
Launch vehicle
Mass (kg)
RCS (m²)

External: N2YO · Heavens-Above

§ Orbital elements

Epoch: 2026-09-17T08:57:43.688448Z

Period
102.32 min
Inclination
98.7158°
Eccentricity
0.0084439
Mean motion
14.07352723 rev/d
Perigee alt
807.3 km
Apogee alt
929.6 km
Semi-major
7,246.6 km
B*
4.4173e-4
RAAN
138.1922°
Arg perigee
333.9274°
Mean anomaly
25.7654°
Rev number
59,095

§ Raw data

UNKNOWN1 81427U          26260.37342232  .00000724  00000+0  44173-3 0  99982 81427  98.7158 138.1922 0084439 333.9274  25.7654 14.07352723590958

JSON: /api/v1/satellites/81427 · /tle

For live sub-satellite position, see the globe view (requires WebGL).

§ Visibility from observer

Set your observer location to see the next 7 days of passes ≥ 10°. The values pass through the URL so the page stays shareable.

No JS? Fill the form by hand. The geolocation button needs JavaScript.